DW2113 Weather Reports


time (UTC)temp
C
wind
direction
speed
KPH
gust
KPH
rain 1hr
cm
rain 24hr
cm
rain mn
cm
humidity
%
barometer
mb
20260906212829 37 360 9.7 16.1 0.00 0.00 0.00 38
20260906212330 37 360 9.7 12.9 0.00 0.00 0.00 37
20260906211830 37 360 8.0 19.3 0.00 0.00 0.00 38
20260906211330 37 360 11.3 20.9 0.00 0.00 0.00 37
20260906210850 37 360 9.7 20.9 0.00 0.00 0.00 38
20260906210330 37 360 12.9 20.9 0.00 0.00 0.00 38
20260906205831 37 360 9.7 19.3 0.00 0.00 0.00 37
20260906205335 37 360 9.7 17.7 0.00 0.00 0.00 38
20260906204836 37 360 9.7 16.1 0.00 0.00 0.00 38
20260906204336 37 360 8.0 19.3 0.00 0.00 0.00 39
20260906203836 37 360 11.3 19.3 0.00 0.00 0.00 39
20260906203336 37 360 9.7 19.3 0.00 0.00 0.00 39
20260906202838 37 360 9.7 19.3 0.00 0.00 0.00 38
20260906202357 37 360 8.0 16.1 0.00 0.00 0.00 38
20260906201857 37 360 11.3 16.1 0.00 0.00 0.00 39
20260906201335 37 360 8.0 19.3 0.00 0.00 0.00 39
20260906200856 37 360 11.3 19.3 0.00 0.00 0.00 38
20260906200335 36 360 8.0 22.5 0.00 0.00 0.00 39
20260906195837 37 360 14.5 22.5 0.00 0.00 0.00 39
20260906195336 37 360 8.0 24.1 0.00 0.00 0.00 38
20260906194837 37 360 17.7 24.1 0.00 0.00 0.00 38
20260906194338 37 360 6.4 20.9 0.00 0.00 0.00 39
20260906193838 37 360 8.0 17.7 0.00 0.00 0.00 40
20260906193343 36 360 9.7 17.7 0.00 0.00 0.00 41
20260906192843 37 360 9.7 19.3 0.00 0.00 0.00 40
20260906192342 36 360 12.9 19.3 0.00 0.00 0.00 40
20260906191844 37 360 9.7 22.5 0.00 0.00 0.00 39
20260906191323 36 360 8.0 22.5 0.00 0.00 0.00 41
20260906190824 36 360 6.4 17.7 0.00 0.00 0.00 40
20260906190324 36 360 11.3 24.1 0.00 0.00 0.00 40
20260906185845 36 360 14.5 24.1 0.00 0.00 0.00 41
20260906185344 36 360 8.0 22.5 0.00 0.00 0.00 41
20260906184844 36 360 12.9 22.5 0.00 0.00 0.00 41
20260906184345 36 360 14.5 22.5 0.00 0.00 0.00 40
20260906183844 36 360 8.0 19.3 0.00 0.00 0.00 40
20260906183329 36 360 11.3 20.9 0.00 0.00 0.00 40
20260906182831 36 360 12.9 20.9 0.00 0.00 0.00 40
20260906182329 36 360 8.0 22.5 0.00 0.00 0.00 41
20260906181829 36 360 12.9 22.5 0.00 0.00 0.00 41
20260906181329 36 360 8.0 17.7 0.00 0.00 0.00 40
20260906180830 36 360 9.7 16.1 0.00 0.00 0.00 40
20260906180330 36 360 9.7 14.5 0.00 0.00 0.00 41
20260906175830 36 360 6.4 16.1 0.00 0.00 0.00 41
20260906175330 36 360 8.0 16.1 0.00 0.00 0.00 41
20260906174830 36 360 6.4 16.1 0.00 0.00 0.00 42
20260906174351 35 360 8.0 16.1 0.00 0.00 0.00 42
20260906173851 35 360 8.0 12.9 0.00 0.00 0.00 42
20260906173351 35 360 6.4 12.9 0.00 0.00 0.00 43
20260906172832 35 360 3.2 16.1 0.00 0.00 0.00 42
20260906172332 35 360 9.7 16.1 0.00 0.00 0.00 43
20260906171831 35 360 8.0 17.7 0.00 0.00 0.00 42
20260906171336 35 360 8.0 17.7 0.00 0.00 0.00 43
20260906170836 35 360 9.7 16.1 0.00 0.00 0.00 45
20260906170329 35 360 11.3 16.1 0.00 0.00 0.00 44
20260906165847 35 360 9.7 17.7 0.00 0.00 0.00 44
20260906165407 35 360 12.9 17.7 0.00 0.00 0.00 44
20260906164846 35 360 8.0 14.5 0.00 0.00 0.00 44
20260906164406 35 360 6.4 16.1 0.00 0.00 0.00 44
20260906163825 35 360 8.0 16.1 0.00 0.00 0.00 44
20260906163326 35 360 11.3 16.1 0.00 0.00 0.00 43
20260906162847 34 360 4.8 12.9 0.00 0.00 0.00 45
20260906162326 34 360 6.4 11.3 0.00 0.00 0.00 45
20260906161825 35 360 6.4 11.3 0.00 0.00 0.00 46
20260906161326 34 360 4.8 12.9 0.00 0.00 0.00 46
20260906160847 34 360 4.8 12.9 0.00 0.00 0.00 46
20260906160326 34 360 4.8 6.4 0.00 0.00 0.00 47
20260906155907 34 360 3.2 9.7 0.00 0.00 0.00 47
20260906155346 34 360 3.2 9.7 0.00 0.00 0.00 47
20260906154827 34 360 0.0 4.8 0.00 0.00 0.00 48
20260906154330 33 360 1.6 4.8 0.00 0.00 0.00 49
20260906153851 33 360 1.6 6.4 0.00 0.00 0.00 49
20260906153330 33 360 3.2 8.0 0.00 0.00 0.00 50
20260906152851 32 360 3.2 8.0 0.00 0.00 0.00 51
20260906152329 32 360 3.2 6.4 0.00 0.00 0.00 50
20260906151850 32 360 1.6 6.4 0.00 0.00 0.00 51
20260906151330 32 360 3.2 6.4 0.00 0.00 0.00 52
20260906150829 32 360 3.2 8.0 0.00 0.00 0.00 53
20260906150330 31 360 3.2 8.0 0.00 0.00 0.00 53
20260906145831 31 360 4.8 8.0 0.00 0.00 0.00 54
20260906145330 31 360 4.8 8.0 0.00 0.00 0.00 55
20260906144831 31 360 3.2 6.4 0.00 0.00 0.00 55
20260906144330 30 360 4.8 6.4 0.00 0.00 0.00 56
20260906143831 30 360 3.2 6.4 0.00 0.00 0.00 57
20260906143332 30 360 1.6 4.8 0.00 0.00 0.00 59
20260906142832 30 360 3.2 4.8 0.00 0.00 0.00 58
20260906142335 29 360 0.0 3.2 0.00 0.00 0.00 60
20260906141836 29 360 0.0 4.8 0.00 0.00 0.00 60
20260906141336 28 360 1.6 3.2 0.00 0.00 0.00 61
20260906140836 28 360 1.6 3.2 0.00 0.00 0.00 61
20260906140338 28 360 1.6 3.2 0.00 0.00 0.00 62
20260906135838 27 360 0.0 1.6 0.00 0.00 0.00 64
20260906135337 27 360 0.0 4.8 0.00 0.00 0.00 64
20260906134838 26 360 1.6 6.4 0.00 0.00 0.00 65
20260906134338 26 360 3.2 4.8 0.00 0.00 0.00 66
20260906133859 26 360 1.6 3.2 0.00 0.00 0.00 67
20260906133339 26 360 1.6 3.2 0.00 0.00 0.00 68
20260906132859 25 360 0.0 3.2 0.00 0.00 0.00 68
20260906132337 25 360 0.0 6.4 0.00 0.00 0.00 70
20260906131859 25 360 3.2 6.4 0.00 0.00 0.00 70
20260906131339 24 360 3.2 8.0 0.00 0.00 0.00 70
20260906130839 24 360 4.8 8.0 0.00 0.00 0.00 70
20260906130343 23 360 4.8 8.0 0.00 0.00 0.00 71
20260906125845 23 360 4.8 8.0 0.00 0.00 0.00 71
20260906125344 23 360 4.8 4.8 0.00 0.00 0.00 71
20260906124844 23 360 0.0 0.0 0.00 0.00 0.00 71
20260906124345 23 360 0.0 1.6 0.00 0.00 0.00 71
20260906123845 23 360 0.0 3.2 0.00 0.00 0.00 71
20260906123346 23 360 1.6 3.2 0.00 0.00 0.00 71
20260906122827 23 360 0.0 1.6 0.00 0.00 0.00 71
20260906122327 23 360 0.0 4.8 0.00 0.00 0.00 71
20260906121827 23 360 1.6 6.4 0.00 0.00 0.00 71
20260906121326 23 360 3.2 8.0 0.00 0.00 0.00 71
20260906120827 23 360 6.4 6.4 0.00 0.00 0.00 71
20260906120348 23 360 4.8 6.4 0.00 0.00 0.00 71
20260906115829 23 360 4.8 4.8 0.00 0.00 0.00 70
20260906115348 23 360 4.8 4.8 0.00 0.00 0.00 71
20260906114832 23 360 3.2 4.8 0.00 0.00 0.00 71
20260906114331 23 360 4.8 4.8 0.00 0.00 0.00 71
20260906113831 23 360 3.2 4.8 0.00 0.00 0.00 71
20260906113352 23 360 3.2 6.4 0.00 0.00 0.00 70
20260906112833 23 360 4.8 6.4 0.00 0.00 0.00 70
20260906112333 23 360 3.2 4.8 0.00 0.00 0.00 70
20260906111834 23 360 4.8 6.4 0.00 0.00 0.00 70
20260906111333 23 360 4.8 6.4 0.00 0.00 0.00 70
20260906110854 23 360 6.4 8.0 0.00 0.00 0.00 70
20260906110333 23 360 6.4 8.0 0.00 0.00 0.00 70
20260906105835 23 360 6.4 6.4 0.00 0.00 0.00 70
20260906105334 23 360 4.8 6.4 0.00 0.00 0.00 71
20260906104855 23 360 4.8 6.4 0.00 0.00 0.00 71
20260906104335 23 360 4.8 6.4 0.00 0.00 0.00 71
20260906103835 23 360 6.4 9.7 0.00 0.00 0.00 71
20260906103355 23 360 6.4 9.7 0.00 0.00 0.00 70
20260906102856 23 360 8.0 9.7 0.00 0.00 0.00 70
20260906102335 23 360 6.4 8.0 0.00 0.00 0.00 71
20260906101840 23 360 6.4 8.0 0.00 0.00 0.00 71
20260906101400 23 360 3.2 4.8 0.00 0.00 0.00 71
20260906100840 23 360 3.2 4.8 0.00 0.00 0.00 71
20260906100339 23 360 3.2 4.8 0.00 0.00 0.00 70
20260906095840 23 360 0.0 0.0 0.00 0.00 0.00 69
20260906095340 23 360 0.0 0.0 0.00 0.00 0.00 69
20260906094840 23 360 0.0 1.6 0.00 0.00 0.00 68
20260906094340 23 360 0.0 0.0 0.00 0.00 0.00 69
20260906093841 23 360 0.0 0.0 0.00 0.00 0.00 69
20260906093401 23 360 0.0 0.0 0.00 0.00 0.00 69
20260906092841 23 360 0.0 0.0 0.00 0.00 0.00 69
20260906092341 23 360 0.0 0.0 0.00 0.00 0.00 68
20260906091842 23 360 0.0 0.0 0.00 0.00 0.00 68
20260906091342 24 360 0.0 0.0 0.00 0.00 0.00 68
20260906090827 24 360 0.0 0.0 0.00 0.00 0.00 68
20260906090328 24 360 0.0 0.0 0.00 0.00 0.00 67
20260906085828 24 360 0.0 0.0 0.00 0.00 0.00 67
20260906085327 25 360 0.0 0.0 0.00 0.00 0.00 66
20260906084827 25 360 0.0 0.0 0.00 0.00 0.00 66
20260906084328 25 360 0.0 0.0 0.00 0.00 0.00 66
20260906083829 25 360 0.0 0.0 0.00 0.00 0.00 66
20260906083330 25 360 0.0 0.0 0.00 0.00 0.00 66
20260906082831 25 360 0.0 3.2 0.00 0.00 0.00 66
20260906082330 25 360 1.6 3.2 0.00 0.00 0.00 66
20260906081830 25 360 1.6 6.4 0.00 0.00 0.00 66
20260906081352 25 360 4.8 8.0 0.00 0.00 0.00 66
20260906080831 25 360 6.4 8.0 0.00 0.00 0.00 66
20260906080332 25 360 6.4 8.0 0.00 0.00 0.00 65
20260906075838 25 360 8.0 8.0 0.00 0.00 0.00 65
20260906075337 25 360 6.4 8.0 0.00 0.00 0.00 64
20260906074837 25 360 6.4 8.0 0.00 0.00 0.00 64
20260906074357 25 360 4.8 6.4 0.00 0.00 0.00 64
20260906073836 25 360 6.4 6.4 0.00 0.00 0.00 64
20260906073337 25 360 4.8 6.4 0.00 0.00 0.00 64
20260906072837 25 360 4.8 6.4 0.00 0.00 0.00 64
20260906072337 25 360 4.8 6.4 0.00 0.00 0.00 64
20260906071837 25 360 4.8 6.4 0.00 0.00 0.00 64
20260906071337 25 360 4.8 6.4 0.00 0.00 0.00 64
20260906070838 25 360 3.2 4.8 0.00 0.00 0.00 64
20260906070338 25 360 3.2 4.8 0.00 0.00 0.00 64
20260906065838 25 360 3.2 4.8 0.00 0.00 0.00 63
20260906065338 26 360 3.2 4.8 0.00 0.00 0.00 63
20260906064842 26 360 1.6 4.8 0.00 0.00 0.00 63
20260906064402 26 360 3.2 6.4 0.00 0.00 0.00 63
20260906063841 26 360 4.8 6.4 0.00 0.00 0.00 63
20260906063342 26 360 3.2 4.8 0.00 0.00 0.00 63
20260906062843 26 360 0.0 0.0 0.00 0.00 0.00 63
20260906062342 26 360 0.0 1.6 0.00 0.00 0.00 63
20260906061843 26 360 0.0 4.8 0.00 0.00 0.00 63
20260906061344 26 360 3.2 4.8 0.00 0.00 0.00 63
20260906060823 26 360 3.2 4.8 0.00 0.00 0.00 63
20260906060323 26 360 3.2 4.8 0.00 0.00 0.00 63
20260906055844 26 360 3.2 3.2 0.00 0.00 0.00 62
20260906055404 26 360 1.6 3.2 0.00 0.00 0.00 62
20260906054842 26 360 1.6 3.2 0.00 0.00 0.00 61
20260906054404 27 360 1.6 4.8 0.00 0.00 0.00 60
20260906053843 27 360 3.2 4.8 0.00 0.00 0.00 60
20260906053327 27 360 3.2 4.8 0.00 0.00 0.00 60
20260906052829 27 360 3.2 6.4 0.00 0.00 0.00 59
20260906052327 27 360 4.8 6.4 0.00 0.00 0.00 59
20260906051848 27 360 4.8 6.4 0.00 0.00 0.00 58
20260906051328 27 360 4.8 6.4 0.00 0.00 0.00 58
20260906050829 27 360 3.2 6.4 0.00 0.00 0.00 59
20260906050340 27 360 3.2 6.4 0.00 0.00 0.00 59
20260906045841 27 360 4.8 6.4 0.00 0.00 0.00 59
20260906045340 27 360 4.8 6.4 0.00 0.00 0.00 60
20260906044843 27 360 4.8 6.4 0.00 0.00 0.00 60
20260906044343 27 360 6.4 6.4 0.00 0.00 0.00 60
20260906043904 27 360 4.8 6.4 0.00 0.00 0.00 59
20260906043323 27 360 4.8 6.4 0.00 0.00 0.00 59
20260906042825 27 360 4.8 6.4 0.00 0.00 0.00 59
20260906042343 27 360 3.2 4.8 0.00 0.00 0.00 58
20260906041828 27 360 3.2 4.8 0.00 0.00 0.00 58
20260906041348 27 360 3.2 4.8 0.00 0.00 0.00 58
20260906040828 28 360 3.2 4.8 0.00 0.00 0.00 58
20260906040348 28 360 3.2 6.4 0.00 0.00 0.00 57
20260906035829 28 360 4.8 8.0 0.00 0.00 0.00 57
20260906035327 28 360 4.8 6.4 0.00 0.00 0.00 56
20260906034828 28 360 6.4 6.4 0.00 0.00 0.00 55
20260906034328 28 360 4.8 6.4 0.00 0.00 0.00 55
20260906033827 28 360 4.8 8.0 0.00 0.00 0.00 55
20260906033328 28 360 6.4 8.0 0.00 0.00 0.00 55
20260906032830 28 360 6.4 8.0 0.00 0.00 0.00 54
20260906032350 28 360 6.4 8.0 0.00 0.00 0.00 54
20260906031828 28 360 6.4 8.0 0.00 0.00 0.00 54
20260906031330 28 360 6.4 8.0 0.00 0.00 0.00 53
20260906030849 28 360 6.4 9.7 0.00 0.00 0.00 53
20260906030329 28 360 8.0 9.7 0.00 0.00 0.00 53
20260906025831 28 360 6.4 8.0 0.00 0.00 0.00 53
20260906025351 28 360 4.8 6.4 0.00 0.00 0.00 53
20260906024833 28 360 6.4 8.0 0.00 0.00 0.00 53
20260906024334 29 360 6.4 8.0 0.00 0.00 0.00 52
20260906023834 30 360 4.8 6.4 0.00 0.00 0.00 50
20260906023334 30 360 3.2 6.4 0.00 0.00 0.00 49
20260906022834 30 360 3.2 6.4 0.00 0.00 0.00 49
20260906022334 30 360 4.8 6.4 0.00 0.00 0.00 49
20260906021834 30 360 4.8 6.4 0.00 0.00 0.00 49
20260906021335 30 360 4.8 6.4 0.00 0.00 0.00 48
20260906020855 30 360 3.2 4.8 0.00 0.00 0.00 48
20260906020335 30 360 3.2 4.8 0.00 0.00 0.00 48
20260906015856 31 360 3.2 6.4 0.00 0.00 0.00 48
20260906015336 31 360 4.8 6.4 0.00 0.00 0.00 48
20260906014856 31 360 4.8 6.4 0.00 0.00 0.00 47
20260906014357 31 360 3.2 6.4 0.00 0.00 0.00 47
20260906013837 31 360 4.8 6.4 0.00 0.00 0.00 47
20260906013336 31 360 3.2 4.8 0.00 0.00 0.00 47
20260906012836 32 360 1.6 4.8 0.00 0.00 0.00 46
20260906012340 32 360 3.2 4.8 0.00 0.00 0.00 46
20260906011903 32 360 3.2 4.8 0.00 0.00 0.00 46
20260906011342 32 360 3.2 4.8 0.00 0.00 0.00 45
20260906010842 33 360 3.2 6.4 0.00 0.00 0.00 44
20260906010341 33 360 4.8 4.8 0.00 0.00 0.00 45
20260906005842 33 360 3.2 4.8 0.00 0.00 0.00 45
20260906005341 33 360 3.2 6.4 0.00 0.00 0.00 45
20260906004841 33 360 3.2 8.0 0.00 0.00 0.00 44
20260906004342 33 360 4.8 8.0 0.00 0.00 0.00 44
20260906003843 33 360 4.8 9.7 0.00 0.00 0.00 44
20260906003343 34 360 6.4 9.7 0.00 0.00 0.00 43
20260906002844 34 360 6.4 12.9 0.00 0.00 0.00 43
20260906002342 34 360 8.0 12.9 0.00 0.00 0.00 43
20260906001827 34 360 4.8 14.5 0.00 0.00 0.00 42
20260906001348 35 360 8.0 14.5 0.00 0.00 0.00 42
20260906000827 35 360 8.0 16.1 0.00 0.00 0.00 42
20260906000328 35 360 6.4 16.1 0.00 0.00 0.00 41
20260905235832 35 360 11.3 16.1 0.00 0.00 0.00 41
20260905235331 35 360 6.4 16.1 0.00 0.00 0.00 41
20260905234832 35 360 11.3 17.7 0.00 0.00 0.00 41
20260905234332 35 360 9.7 19.3 0.00 0.00 0.00 40
20260905233832 35 360 9.7 19.3 0.00 0.00 0.00 40
20260905233334 35 360 9.7 16.1 0.00 0.00 0.00 40
20260905232835 36 360 9.7 16.1 0.00 0.00 0.00 40
20260905232334 36 360 8.0 16.1 0.00 0.00 0.00 39
20260905231835 36 360 8.0 16.1 0.00 0.00 0.00 39
20260905231355 36 360 11.3 17.7 0.00 0.00 0.00 39
20260905230855 36 360 6.4 22.5 0.00 0.00 0.00 38
20260905230334 36 360 8.0 22.5 0.00 0.00 0.00 38
20260905225840 36 360 9.7 17.7 0.00 0.00 0.00 38
20260905225340 36 360 11.3 16.1 0.00 0.00 0.00 38
20260905224839 36 360 8.0 16.1 0.00 0.00 0.00 37
20260905224359 36 360 6.4 14.5 0.00 0.00 0.00 37
20260905223839 36 360 6.4 20.9 0.00 0.00 0.00 36
20260905223340 36 360 14.5 20.9 0.00 0.00 0.00 38
20260905222841 36 360 8.0 20.9 0.00 0.00 0.00 38
20260905222341 36 360 14.5 19.3 0.00 0.00 0.00 38
20260905221901 37 360 11.3 17.7 0.00 0.00 0.00 37
20260905221340 37 360 8.0 19.3 0.00 0.00 0.00 37
20260905220840 36 360 6.4 19.3 0.00 0.00 0.00 37
20260905220341 36 360 11.3 17.7 0.00 0.00 0.00 37
20260905215842 36 360 8.0 19.3 0.00 0.00 0.00 36
20260905215402 37 360 11.3 19.3 0.00 0.00 0.00 37
20260905214841 37 360 8.0 17.7 0.00 0.00 0.00 36
20260905214402 37 360 9.7 19.3 0.00 0.00 0.00 36
20260905213825 36 360 12.9 19.3 0.00 0.00 0.00 37
20260905213325 36 360 9.7 19.3 0.00 0.00 0.00 37